Cando, ND

1:47 AM CST on February 23, 2017 (GMT -0600)
Cando

Weather History for K9D7 - September, 2012

Change the Weather History Date:

Sunday, September 30, 2012

  Actual Average (KDVL) Record (KDVL)
Temperature  
Mean Temperature 60 °F -  
Max Temperature 75 °F 64 °F 88 °F (1989)
Min Temperature 46 °F 39 °F 25 °F (1961)
Degree Days  
Heating Degree Days 4    
Growing Degree Days 10 (Base 50)    
Moisture  
Dew Point 42 °F    
Average Humidity 51    
Maximum Humidity 72    
Minimum Humidity 35    
Precipitation  
Precipitation 0.01 in - - ()
Sea Level Pressure  
Sea Level Pressure 29.92 in    
Wind  
Wind Speed 12 mph (WNW)    
Max Wind Speed 23 mph    
Max Gust Speed 30 mph    
Visibility 10 miles    
Events Rain    
Averages and records for this station are not official NWS values.
T = Trace of Precipitation, MM = Missing Value Source: NWS Daily Summary

Daily Weather History Graph

Daily Weather History Graph

Search for Another Location

Airport or City:

Trip Planner

Search our weather history database for the weather conditions in past years. The results will help you decide how hot, cold, wet, or windy it might be!

Date:

Astronomy

Sep. 30, 2012 Rise Set
Actual Time 7:35 AM CDT 7:16 PM CDT
Civil Twilight 7:04 AM CDT 7:48 PM CDT
Nautical Twilight 6:28 AM CDT 8:24 PM CDT
Astronomical Twilight 5:50 AM CDT 9:01 PM CDT
Moon 7:12 PM CDT (9/30) 8:15 AM CDT (9/30)
Length of Visible Light 12h 43m
Length of Day
11h 41m
Full, 100% of the Moon is Illuminated
Sep 30
Full
Oct 8
Last Quarter
Oct 15
New
Oct 21
First Quarter
Oct 29
Full

Hourly Weather History & Observations

Time (CDT) Temp. Windchill Dew Point Humidity Pressure Visibility Wind Dir Wind Speed Gust Speed Precip Events Conditions
12:15 AM 59.0 °F - 41.0 °F 51% 29.91 in 10.0 mi South 9.2 mph - N/A   Clear
12:55 AM 59.0 °F - 39.2 °F 48% 29.91 in 10.0 mi South 10.4 mph - N/A   Clear
1:15 AM 59.0 °F - 39.2 °F 48% 29.90 in 10.0 mi South 10.4 mph - N/A   Clear
1:35 AM 57.2 °F - 39.2 °F 51% 29.90 in 10.0 mi South 10.4 mph - N/A   Clear
1:55 AM 57.2 °F - 39.2 °F 51% 29.90 in 10.0 mi South 10.4 mph - N/A   Clear
2:15 AM 57.2 °F - 39.2 °F 51% 29.90 in 10.0 mi SSW 9.2 mph - N/A   Clear
2:35 AM 57.2 °F - 39.2 °F 51% 29.90 in 10.0 mi SSW 9.2 mph - N/A   Clear
2:55 AM 55.4 °F - 39.2 °F 54% 29.89 in 10.0 mi SSW 8.1 mph - N/A   Clear
3:15 AM 55.4 °F - 39.2 °F 54% 29.88 in 10.0 mi South 9.2 mph - N/A   Clear
3:35 AM 55.4 °F - 39.2 °F 54% 29.88 in 10.0 mi South 4.6 mph - N/A   Clear
3:55 AM 53.6 °F - 39.2 °F 58% 29.88 in 10.0 mi SSW 5.8 mph - N/A   Clear
4:15 AM 53.6 °F - 37.4 °F 54% 29.88 in 10.0 mi SSW 5.8 mph - N/A   Clear
4:35 AM 53.6 °F - 37.4 °F 54% 29.88 in 10.0 mi SW 4.6 mph - N/A   Clear
4:55 AM 53.6 °F - 37.4 °F 54% 29.87 in 10.0 mi SW 6.9 mph - N/A   Clear
5:15 AM 51.8 °F - 37.4 °F 58% 29.87 in 10.0 mi SW 8.1 mph - N/A   Clear
5:35 AM 50.0 °F - 37.4 °F 62% 29.87 in 10.0 mi SW 5.8 mph - N/A   Clear
5:55 AM 50.0 °F - 37.4 °F 62% 29.87 in 10.0 mi WSW 8.1 mph - N/A   Clear
6:15 AM 48.2 °F - 37.4 °F 66% 29.87 in 10.0 mi SW 6.9 mph - N/A   Clear
6:35 AM 48.2 °F - 37.4 °F 66% 29.87 in 10.0 mi WSW 9.2 mph - N/A   Clear
6:55 AM 46.4 °F 43.5 °F 37.4 °F 71% 29.87 in 10.0 mi West 5.8 mph - N/A   Clear
7:15 AM 48.2 °F - 39.2 °F 71% 29.87 in 10.0 mi West 5.8 mph - N/A   Clear
7:35 AM 50.0 °F - 41.0 °F 71% 29.87 in 10.0 mi West 10.4 mph - N/A   Clear
7:55 AM 55.4 °F - 41.0 °F 58% 29.88 in 10.0 mi West 12.7 mph - N/A   Clear
8:15 AM 55.4 °F - 41.0 °F 58% 29.88 in 10.0 mi WSW 11.5 mph - N/A   Clear
8:35 AM 55.4 °F - 41.0 °F 58% 29.88 in 10.0 mi West 9.2 mph - N/A   Clear
9:15 AM 59.0 °F - 42.8 °F 55% 29.88 in 10.0 mi West 15.0 mph - N/A   Clear
9:35 AM 59.0 °F - 44.6 °F 59% 29.88 in 10.0 mi West 16.1 mph - N/A   Clear
9:55 AM 60.8 °F - 44.6 °F 55% 29.88 in 10.0 mi West 13.8 mph - N/A   Clear
10:15 AM 62.6 °F - 46.4 °F 55% 29.88 in 10.0 mi West 16.1 mph 23.0 mph N/A   Clear
10:35 AM 62.6 °F - 46.4 °F 55% 29.89 in 10.0 mi WNW 18.4 mph - N/A   Clear
10:55 AM 64.4 °F - 46.4 °F 52% 29.89 in 10.0 mi West 18.4 mph - N/A   Clear
11:15 AM 64.4 °F - 46.4 °F 52% 29.88 in 10.0 mi West 16.1 mph - N/A   Clear
11:35 AM 66.2 °F - 46.4 °F 49% 29.88 in 10.0 mi WNW 19.6 mph - N/A   Clear
11:55 AM 66.2 °F - 46.4 °F 49% 29.89 in 10.0 mi WNW 16.1 mph 23.0 mph N/A   Clear
12:15 PM 68.0 °F - 48.2 °F 49% 29.89 in 10.0 mi WNW 18.4 mph 25.3 mph N/A   Clear
12:35 PM 68.0 °F - 48.2 °F 49% 29.90 in 10.0 mi WNW 17.3 mph 25.3 mph N/A   Clear
12:55 PM 71.6 °F - 48.2 °F 43% 29.89 in 10.0 mi WNW 17.3 mph 20.7 mph N/A   Clear
1:15 PM 71.6 °F - 50.0 °F 46% 29.89 in 10.0 mi WNW 15.0 mph 24.2 mph N/A   Clear
1:35 PM 73.4 °F - 48.2 °F 41% 29.89 in 10.0 mi NW 18.4 mph 25.3 mph N/A   Clear
1:55 PM 73.4 °F - 48.2 °F 41% 29.88 in 10.0 mi WNW 21.9 mph 26.5 mph N/A   Clear
2:15 PM 73.4 °F - 50.0 °F 44% 29.88 in 10.0 mi NW 13.8 mph 28.8 mph N/A   Clear
2:35 PM 75.2 °F - 48.2 °F 38% 29.88 in 10.0 mi NW 18.4 mph 25.3 mph N/A   Clear
2:55 PM 73.4 °F - 48.2 °F 41% 29.89 in 10.0 mi NNW 23.0 mph 26.5 mph N/A   Clear
3:15 PM 73.4 °F - 48.2 °F 41% 29.90 in 10.0 mi NNW 16.1 mph 24.2 mph N/A   Clear
3:35 PM 73.4 °F - 48.2 °F 41% 29.90 in 10.0 mi NNW 19.6 mph 25.3 mph N/A   Clear
3:55 PM 71.6 °F - 48.2 °F 43% 29.90 in 10.0 mi NNW 19.6 mph 26.5 mph N/A   Partly Cloudy
4:15 PM 73.4 °F - 46.4 °F 38% 29.91 in 10.0 mi NW 21.9 mph 26.5 mph N/A   Partly Cloudy
4:35 PM 71.6 °F - 46.4 °F 41% 29.91 in 10.0 mi NNW 20.7 mph 29.9 mph N/A   Clear
4:55 PM 69.8 °F - 46.4 °F 43% 29.92 in 10.0 mi NNW 20.7 mph 28.8 mph N/A   Clear
5:15 PM 68.0 °F - 44.6 °F 43% 29.93 in 10.0 mi NNW 20.7 mph 28.8 mph N/A   Partly Cloudy
5:35 PM 68.0 °F - 42.8 °F 40% 29.94 in 10.0 mi NW 17.3 mph 26.5 mph N/A   Partly Cloudy
5:55 PM 66.2 °F - 39.2 °F 37% 29.95 in 10.0 mi NNW 18.4 mph 26.5 mph N/A   Clear
6:15 PM 66.2 °F - 39.2 °F 37% 29.95 in 10.0 mi NNW 15.0 mph 21.9 mph N/A   Clear
6:35 PM 66.2 °F - 37.4 °F 35% 29.95 in 10.0 mi NNW 17.3 mph 21.9 mph N/A   Clear
7:15 PM 64.4 °F - 39.2 °F 40% 29.97 in 10.0 mi NNW 13.8 mph - N/A   Clear
7:35 PM 62.6 °F - 39.2 °F 42% 29.98 in 10.0 mi NNW 13.8 mph 18.4 mph N/A   Clear
7:55 PM 62.6 °F - 39.2 °F 42% 29.98 in 10.0 mi NNW 13.8 mph - N/A   Clear
8:15 PM 62.6 °F - 39.2 °F 42% 29.99 in 10.0 mi NNW 12.7 mph - N/A   Clear
8:35 PM 60.8 °F - 39.2 °F 45% 30.00 in 10.0 mi NNW 13.8 mph - N/A   Clear
9:15 PM 60.8 °F - 41.0 °F 48% 30.02 in 10.0 mi NNW 13.8 mph 19.6 mph N/A   Mostly Cloudy
9:35 PM 60.8 °F - 41.0 °F 48% 30.02 in 10.0 mi NNW 12.7 mph - N/A   Mostly Cloudy
10:15 PM 55.4 °F - 46.4 °F 72% 30.04 in 10.0 mi North 16.1 mph 20.7 mph 0.01 in Rain Light Rain
10:35 PM 55.4 °F - 42.8 °F 63% 30.05 in 10.0 mi NW 15.0 mph - 0.01 in   Overcast
10:55 PM 55.4 °F - 42.8 °F 63% 30.05 in 10.0 mi NW 13.8 mph - 0.01 in   Overcast
11:15 PM 57.2 °F - 41.0 °F 55% 30.06 in 10.0 mi NW 16.1 mph 21.9 mph N/A   Overcast
11:35 PM 57.2 °F - 39.2 °F 51% 30.06 in 10.0 mi NW 12.7 mph 23.0 mph N/A   Overcast
11:55 PM 57.2 °F - 39.2 °F 51% 30.06 in 10.0 mi NNW 16.1 mph - N/A   Overcast